This demonstration page uses our WeatherBlox Daily Observations layout. Learn more.

Left ArrowRight Arrow

39.08367, -84.50855

Hourly Observations for March 5, 2019

Temp ( °F °C ) Dew Point ( °F °C ) Humidity (%) Winds ( mph kmh ) Pressure ( in mb ) Visibility ( mi km ) Precip ( " mm )
12:53 am 00:53 Mostly Clear 12 -11.1 2 -16.7 64 64 W 7 11 30.28 1025 10 16 N/A
1:30 am 01:30 Mostly Cloudy 13 -10.6 3 -16.1 64 64 W 9 15 30.31 1026 10 16 N/A
1:53 am 01:53 Cloudy 13 -10.6 3 -16.1 64 64 W 9 15 30.29 1026 10 16 N/A
2:53 am 02:53 Cloudy 12 -11.1 3 -16.1 67 67 W 12 19 30.28 1026 10 16 N/A
3:53 am 03:53 Partly Cloudy 11 -11.7 3 -16.1 70 70 WSW 5 7 30.27 1025 10 16 N/A
4:16 am 04:16 Mostly Cloudy 12 -11.1 3 -16.1 67 67 SW 8 13 30.29 1026 10 16 N/A
4:53 am 04:53 Mostly Cloudy 11 -11.7 3 -16.1 70 70 SSW 12 19 30.25 1024 10 16 N/A
5:53 am 05:53 Cloudy 12 -11.1 4 -15.6 70 70 SSW 10 17 30.26 1025 10 16 N/A
6:07 am 06:07 Cloudy 12 -11.1 4 -15.6 70 70 SSW 10 17 30.28 1025 10 16 N/A
6:53 am 06:53 Mostly Clear 11 -11.7 3 -16.1 70 70 SSW 10 17 30.24 1024 10 16 N/A
7:53 am 07:53 Mostly Cloudy 11 -11.7 4 -15.6 73 73 SW 12 19 30.24 1024 10 16 N/A
8:53 am 08:53 Partly Cloudy 15 -9.4 6 -14.4 67 67 SW 12 19 30.24 1024 10 16 N/A
9:53 am 09:53 Sunny 17 -8.3 6 -14.4 62 62 SW 12 19 30.22 1023 10 16 N/A
10:53 am 10:53 Mostly Sunny 20 -6.7 7 -13.9 57 57 WSW 18 30 30.22 1023 10 16 N/A
11:53 am 11:53 Partly Cloudy 22 -5.6 8 -13.3 55 55 WSW 18 30 30.22 1023 10 16 N/A
12:53 pm 12:53 Mostly Sunny 24 -4.4 9 -12.8 52 52 SW 16 26 30.21 1023 10 16 N/A
1:53 pm 13:53 Cloudy 24 -4.4 10 -12.2 55 55 WSW 16 26 30.20 1023 10 16 N/A
2:53 pm 14:53 Cloudy 25 -3.9 11 -11.7 55 55 W 16 26 30.20 1023 10 16 N/A
3:53 pm 15:53 Cloudy 25 -3.9 9 -12.8 50 50 W 10 17 30.22 1023 10 16 N/A
4:53 pm 16:53 Cloudy 24 -4.4 10 -12.2 55 55 W 14 22 30.24 1024 10 16 N/A
5:53 pm 17:53 Cloudy 23 -5 11 -11.7 60 60 WNW 7 11 30.26 1025 10 16 N/A
6:53 pm 18:53 Cloudy with Light Snow 22 -5.6 10 -12.2 60 60 WNW 8 13 30.29 1026 9 14 N/A
7:15 pm 19:15 Cloudy with Light Snow 21 -6.1 12 -11.1 68 68 WNW 10 17 30.32 1027 3 4 N/A
7:25 pm 19:25 Cloudy with Light Snow 20 -6.7 12 -11.1 71 71 NW 10 17 30.33 1027 4 6 N/A
7:53 pm 19:53 Cloudy 20 -6.7 11 -11.7 68 68 WNW 14 22 30.32 1027 10 16 N/A
8:53 pm 20:53 Partly Cloudy 19 -7.2 6 -14.4 57 57 W 15 24 30.34 1027 10 16 N/A
9:53 pm 21:53 Cloudy 19 -7.2 6 -14.4 57 57 W 18 30 30.36 1028 10 16 N/A
10:53 pm 22:53 Clear 19 -7.2 7 -13.9 59 59 W 17 28 30.36 1028 10 16 N/A
11:53 pm 23:53 Clear 18 -7.8 8 -13.3 65 65 WSW 12 19 30.37 1028 10 16 N/A

Powered by AerisWeather